AIC625 VABB-VOHS

Flight info

Callsign AIC625
Flight time N/A
Altitude 39000
Route VEVAK2A PPN DCT DOGAP DCT LUKTI DCT PONIP DCT NAMSA NAMSA8
Aircraft A20N/M-SDE2E3FGHIRWXY/LB1

Departure

Time 2026-04-29 18:35
Airport Chhatrapati Shivaji Maharaj International Airport (VABB)

Arrival

Time N/A
Airport Rajiv Gandhi International Airport (VOHS)
Time Latitude Longitude Altitude Speed Heading
2026-04-29 17:59 19.09329 72.87209 35 ft 0 kts 342°
2026-04-29 18:27 19.09318 72.87213 35 ft 2 kts 342°
2026-04-29 18:27 19.09305 72.87218 34 ft 2 kts 343°
2026-04-29 18:27 19.09290 72.87221 34 ft 2 kts
2026-04-29 18:27 19.09277 72.87216 34 ft 2 kts 32°
2026-04-29 18:28 19.09266 72.87206 34 ft 2 kts 60°
2026-04-29 18:28 19.09261 72.87191 33 ft 0 kts 86°
2026-04-29 18:28 19.09261 72.87184 33 ft 1 kts 91°
2026-04-29 18:28 19.09261 72.87183 33 ft 0 kts 90°
2026-04-29 18:31 19.09261 72.87197 33 ft 3 kts 96°
2026-04-29 18:32 19.09246 72.87233 33 ft 7 kts 130°
2026-04-29 18:32 19.09092 72.87265 30 ft 15 kts 172°
2026-04-29 18:32 19.09052 72.87366 29 ft 17 kts 86°
2026-04-29 18:33 19.09056 72.87502 29 ft 19 kts 89°
2026-04-29 18:33 19.09058 72.87645 32 ft 19 kts 89°
2026-04-29 18:33 19.09061 72.87796 32 ft 21 kts 89°
2026-04-29 18:33 19.09060 72.87942 36 ft 18 kts 94°
2026-04-29 18:34 19.09016 72.88047 39 ft 15 kts 156°
2026-04-29 18:34 19.08943 72.88052 38 ft 16 kts 181°
2026-04-29 18:34 19.08891 72.87935 36 ft 15 kts 263°
2026-04-29 18:34 19.08882 72.87811 31 ft 18 kts 269°
2026-04-29 18:35 19.08880 72.87668 29 ft 28 kts 269°
2026-04-29 18:35 19.08870 72.87131 29 ft 113 kts 269°
2026-04-29 18:35 19.08858 72.86056 83 ft 173 kts 269°
2026-04-29 18:35 19.08849 72.84730 652 ft 189 kts 270°
2026-04-29 18:36 19.08851 72.83247 1625 ft 195 kts 270°
2026-04-29 18:36 19.08842 72.82077 2465 ft 195 kts 269°
2026-04-29 18:36 19.08808 72.80200 3762 ft 197 kts 269°
2026-04-29 18:36 19.08793 72.79411 4302 ft 195 kts 269°
2026-04-29 18:37 19.08767 72.77925 5249 ft 190 kts 269°
2026-04-29 18:37 19.08745 72.76526 5964 ft 196 kts 269°
2026-04-29 18:37 19.08721 72.75079 6690 ft 201 kts 266°
2026-04-29 18:37 19.08422 72.73652 7397 ft 206 kts 243°
2026-04-29 18:38 19.07178 72.72126 8341 ft 213 kts 211°
2026-04-29 18:38 19.06278 72.71687 8810 ft 217 kts 194°
2026-04-29 18:38 19.04297 72.71684 9749 ft 223 kts 161°
2026-04-29 18:38 19.02962 72.72477 10472 ft 226 kts 137°
2026-04-29 18:39 19.02514 72.72932 10769 ft 227 kts 134°
2026-04-29 18:39 19.01026 72.74314 11676 ft 230 kts 152°
2026-04-29 18:39 18.98985 72.74829 12610 ft 234 kts 179°
2026-04-29 18:39 18.97350 72.74833 13315 ft 237 kts 181°
2026-04-29 18:40 18.96270 72.74806 13773 ft 239 kts 182°
2026-04-29 18:40 18.94611 72.74755 14462 ft 242 kts 182°
2026-04-29 18:40 18.92377 72.74686 15361 ft 245 kts 181°
2026-04-29 18:40 18.90665 72.74637 16027 ft 248 kts 181°
2026-04-29 18:41 18.85496 72.74497 17931 ft 257 kts 181°
2026-04-29 18:41 18.84309 72.74465 18345 ft 259 kts 181°
2026-04-29 18:42 18.82497 72.74417 18963 ft 262 kts 181°
2026-04-29 18:42 18.80715 72.74632 19535 ft 267 kts 159°
2026-04-29 18:42 18.79120 72.75667 20123 ft 274 kts 133°
2026-04-29 18:42 18.78274 72.76936 20632 ft 277 kts 113°
2026-04-29 18:43 18.77861 72.79327 21433 ft 280 kts 88°
2026-04-29 18:43 18.77949 72.81183 22025 ft 283 kts 86°
2026-04-29 18:43 18.78083 72.83252 22674 ft 286 kts 86°
2026-04-29 18:43 18.78192 72.85000 23219 ft 284 kts 86°
2026-04-29 18:44 18.78361 72.87965 24019 ft 286 kts 86°
2026-04-29 18:44 18.78409 72.88862 24241 ft 287 kts 86°
2026-04-29 18:44 18.78543 72.91455 24862 ft 290 kts 87°
2026-04-29 18:44 18.78671 72.94004 25449 ft 293 kts 87°
2026-04-29 18:45 18.78756 72.95741 25838 ft 295 kts 87°
2026-04-29 18:45 18.78861 72.97901 26307 ft 298 kts 87°
2026-04-29 18:45 18.78936 72.99460 26636 ft 299 kts 87°
2026-04-29 18:45 18.79060 73.02029 27188 ft 304 kts 87°
2026-04-29 18:46 18.79167 73.04263 27643 ft 307 kts 87°
2026-04-29 18:46 18.80128 73.24603 30816 ft 313 kts 87°
2026-04-29 18:46 18.80198 73.26110 31008 ft 316 kts 87°
2026-04-29 18:46 18.80306 73.28450 31297 ft 320 kts 87°
2026-04-29 18:47 18.80403 73.30544 31546 ft 324 kts 87°
2026-04-29 18:47 18.80526 73.33193 31850 ft 329 kts 87°
2026-04-29 18:47 18.80631 73.35617 32115 ft 333 kts 89°
2026-04-29 18:47 18.80540 73.38897 32454 ft 339 kts 95°
2026-04-29 18:48 18.80348 73.40547 32619 ft 342 kts 99°
2026-04-29 18:48 18.79902 73.42896 32849 ft 346 kts 104°
2026-04-29 18:48 18.79179 73.45426 33120 ft 349 kts 110°
2026-04-29 18:48 18.78252 73.47807 33405 ft 352 kts 114°
2026-04-29 18:49 18.77487 73.49562 33622 ft 353 kts 115°
2026-04-29 18:49 18.76222 73.52412 33965 ft 356 kts 115°
2026-04-29 18:49 18.74888 73.55422 34311 ft 358 kts 115°
2026-04-29 18:49 18.74203 73.56974 34523 ft 358 kts 115°
2026-04-29 18:50 18.73265 73.59104 34814 ft 358 kts 115°
2026-04-29 18:50 18.72106 73.61739 35174 ft 359 kts 115°
2026-04-29 18:50 18.70814 73.64679 35572 ft 359 kts 115°
2026-04-29 18:50 18.70260 73.65942 35679 ft 360 kts 115°